Location: Unspecified
(0.0000°N, 0.0000°E)
Time: 11:09:24
(UTC+00:00)

UWE-3 - Visible Passes

Search period start: 23 July 2018 00:00
Search period end: 02 August 2018 00:00
Orbit: 585 x 685 km, 97.6° (Epoch: 22 July)

Date Brightness Start Highest point End Pass type
(mag) Time Alt. Az. Time Alt. Az. Time Alt. Az.
23 Jul ? 18:44:46 10° SSE 18:49:05 84° E 18:53:16 10° N visible
24 Jul ? 19:06:47 10° S 19:10:53 44° WSW 19:14:53 10° NNW visible
25 Jul ? 19:29:24 10° SSW 19:32:40 21° WSW 19:35:52 10° NW visible
26 Jul ? 19:54:01 10° WSW 19:54:25 10° WSW 19:54:49 10° W visible
27 Jul ? 18:35:54 10° SSE 18:40:06 62° E 18:44:12 10° N visible
28 Jul ? 18:57:43 10° S 19:01:54 59° WSW 19:05:59 10° NNW visible
29 Jul ? 19:20:05 10° SSW 19:23:41 27° WSW 19:27:13 10° NW visible
30 Jul ? 19:43:23 10° SW 19:45:27 13° WSW 19:47:30 10° WNW visible
31 Jul ? 18:27:04 10° SSE 18:31:06 45° E 18:35:02 10° N visible
01 Aug ? 18:48:42 10° S 18:52:54 80° W 18:57:01 10° NNW visible
